Location: Newark
(13.8117°N, 3.6025°W)
Time: 21:20:32
(UTC+00:00)

Vanguard 2 - Pass Details

Date: 03 September 2019
Orbit: 554 x 2937 km, 32.9° (Epoch: 14 October)

Event Time Altitude Azimuth Distance (km) Brightness Sun altitude
Rises 17:10:56 0° 285° (WNW) 4,223 13.0 17.0°
Reaches altitude 10° 17:13:34 10° 277° (W) 3,530 13.7 16.3°
Maximum altitude 17:22:22 41° 211° (SSW) 2,629 10.7 14.2°
Drops below altitude 10° 17:35:58 10° 147° (SSE) 5,355 11.5 10.9°
Sets 17:41:07 0° 140° (SE) 6,597 11.9 9.7°
